Location: Burera
(21.3780°N, 81.9534°E)
Time: 12:45:22
(UTC+00:00)

USA 186 - Pass Details

Date: 13 August 2020
Orbit: 262 x 428 km, 96.9° (Epoch: 19 September)

Event Time Altitude Azimuth Distance (km) Brightness Sun altitude
Exits shadow 14:47:44 15° 306° (NW) 855 4.3 -23.4°
Drops below altitude 10° 14:48:23 10° 318° (NW) 1,074 4.8 -23.5°
Sets 14:50:20 0° 334° (NNW) 1,872 5.9 -23.9°
